Weather History for KSAC - April, 2012

Change the Weather History Date:

Thursday, April 5, 2012

  Actual Average Record
Temperature  
Mean Temperature 48 °F -  
Max Temperature 61 °F 68 °F 85 °F (1957)
Min Temperature 35 °F 45 °F 35 °F (2003)
Degree Days  
Heating Degree Days 17    
Month to date heating degree days 59  
Cooling Degree Days 0    
Month to date cooling degree days 0  
Year to date cooling degree days 0  
Moisture  
Dew Point 32 °F    
Average Humidity 54    
Maximum Humidity 85    
Minimum Humidity 23    
Precipitation  
Precipitation 0.00 in 0.05 in 1.01 in (1969)
Month to date precipitation 0.05 0.25  
Year to date precipitation 7.46 10.11  
Since 1 July precipitation 9.81  
Sea Level Pressure  
Sea Level Pressure 30.11 in    
Wind  
Wind Speed 6 mph (West)    
Max Wind Speed 14 mph    
Max Gust Speed 20 mph    
Visibility 10 miles    
Events      
T = Trace of Precipitation, MM = Missing Value Source: NWS Daily Summary

Daily Weather History Graph

Daily Weather History Graph

Search for Another Location

Airport or City:

Trip Planner

Search our weather history database for the weather conditions in past years. The results will help you decide how hot, cold, wet, or windy it might be!

Date:

Astronomy

Apr. 05, 2012 Rise Set
Actual Time 6:43 AM PDT 7:33 PM PDT
Civil Twilight 6:16 AM PDT 8:00 PM PDT
Nautical Twilight 5:45 AM PDT 8:32 PM PDT
Astronomical Twilight 5:12 AM PDT 9:05 PM PDT
Moon 6:45 PM PDT (4/5) 5:42 AM PDT (4/5)
Length of Visible Light 13h 43m
Length of Day
12h 49m
Waxing Gibbous, 98% of the Moon is Illuminated
Apr 5
Waxing Gibbous
Apr 6
Full
Apr 13
Last Quarter
Apr 21
New
Apr 29
First Quarter

Hourly Weather History & Observations

Time (PDT) Temp. Windchill Dew Point Humidity Pressure Visibility Wind Dir Wind Speed Gust Speed Precip Events Conditions
12:53 AM 44.1 °F 39.5 °F 32.0 °F 63% 30.12 in 10.0 mi West 8.1 mph - N/A   Clear
1:53 AM 43.0 °F 38.8 °F 32.0 °F 65% 30.12 in 10.0 mi WNW 6.9 mph - N/A   Clear
2:53 AM 42.1 °F 37.1 °F 30.9 °F 65% 30.11 in 10.0 mi WNW 8.1 mph - N/A   Clear
3:53 AM 39.9 °F 35.1 °F 30.9 °F 70% 30.11 in 10.0 mi WNW 6.9 mph - N/A   Clear
4:53 AM 37.9 °F 34.4 °F 30.9 °F 76% 30.10 in 10.0 mi West 4.6 mph - N/A   Clear
5:53 AM 37.0 °F - 30.9 °F 79% 30.11 in 10.0 mi Calm Calm - N/A   Clear
6:53 AM 36.0 °F - 30.9 °F 82% 30.12 in 10.0 mi Calm Calm - N/A   Clear
7:53 AM 39.9 °F - 35.1 °F 83% 30.12 in 10.0 mi Calm Calm - N/A   Clear
8:53 AM 45.0 °F - 34.0 °F 65% 30.12 in 10.0 mi Calm Calm - N/A   Clear
9:53 AM 50.0 °F - 32.0 °F 50% 30.13 in 10.0 mi North 6.9 mph - N/A   Clear
10:53 AM 53.1 °F - 33.1 °F 47% 30.13 in 10.0 mi North 4.6 mph - N/A   Clear
11:53 AM 54.0 °F - 33.1 °F 45% 30.12 in 10.0 mi NNW 5.8 mph - N/A   Clear
12:53 PM 55.9 °F - 30.9 °F 39% 30.10 in 10.0 mi WNW 10.4 mph - N/A   Clear
1:53 PM 57.0 °F - 30.0 °F 36% 30.09 in 10.0 mi NW 8.1 mph - N/A   Clear
2:53 PM 59.0 °F - 28.9 °F 32% 30.08 in 10.0 mi NW 11.5 mph - N/A   Clear
3:53 PM 59.0 °F - 23.0 °F 25% 30.07 in 10.0 mi WSW 9.2 mph - N/A   Clear
4:53 PM 60.1 °F - 23.0 °F 24% 30.06 in 10.0 mi NW 6.9 mph - N/A   Partly Cloudy
5:53 PM 55.0 °F - 28.0 °F 35% 30.07 in 10.0 mi West 11.5 mph - N/A   Mostly Cloudy
6:53 PM 54.0 °F - 30.0 °F 40% 30.08 in 10.0 mi SW 9.2 mph - N/A   Clear
7:53 PM 50.0 °F - 36.0 °F 59% 30.09 in 10.0 mi SW 10.4 mph 18.4 mph N/A   Clear
8:53 PM 48.0 °F - 37.0 °F 66% 30.12 in 10.0 mi SW 8.1 mph - N/A   Clear
9:53 PM 45.0 °F 41.8 °F 37.0 °F 74% 30.13 in 10.0 mi SW 5.8 mph - N/A   Clear
10:53 PM 44.1 °F 40.8 °F 37.9 °F 79% 30.14 in 10.0 mi WSW 5.8 mph - N/A   Clear
11:53 PM 42.1 °F 39.2 °F 36.0 °F 79% 30.16 in 10.0 mi SW 4.6 mph - N/A   Clear